K0JSC-13 Weather Reports


Display with metric or nautical units.
time (UTC)temp
F
wind
direction
speed
MPH
gust
MPH
rain 1hr
in
rain 24hr
in
rain mn
in
humidity
%
barometer
mb
20260510080003 52 134 11.0 19.0 0.00 0.00 0.00 73 998.0
20260510075617 52 136 10.0 19.0 0.00 0.00 0.00 72 998.0
20260510074504 52 138 12.0 24.0 0.00 0.00 0.00 71 997.8
20260510073603 53 144 12.0 24.0 0.00 0.00 0.00 70 997.5
20260510072703 53 136 11.0 21.0 0.00 0.00 0.00 71 997.5
20260510072018 53 139 14.0 25.0 0.00 0.00 0.00 70 997.3
20260510070903 53 142 11.0 22.0 0.00 0.00 0.00 69 997.2
20260510070004 54 144 10.0 22.0 0.00 0.00 0.00 67 997.3
20260510065403 55 143 11.0 22.0 0.00 0.00 0.00 64 997.1
20260510064503 56 138 11.0 22.0 0.00 0.00 0.00 59 996.9
20260510063603 56 138 12.0 23.0 0.00 0.00 0.00 58 996.6
20260510062704 57 133 10.0 26.0 0.00 0.00 0.00 56 996.5
20260510061803 57 142 8.0 26.0 0.00 0.00 0.00 55 996.0
20260510060903 57 319 2.0 9.0 0.00 0.00 0.00 55 995.5
20260510060005 57 316 7.0 16.0 0.00 0.00 0.00 55 994.7
20260510055403 57 318 9.0 20.0 0.00 0.00 0.00 55 994.4
20260510054717 57 317 10.0 20.0 0.00 0.00 0.00 55 994.1
20260510053604 58 337 11.0 24.0 0.00 0.00 0.00 53 994.0
20260510052918 58 332 12.0 21.0 0.00 0.00 0.00 52 994.0
20260510051803 59 350 9.0 19.0 0.00 0.00 0.00 50 993.7
20260510050903 59 338 10.0 19.0 0.00 0.00 0.00 50 993.5
20260510050003 60 331 12.0 30.0 0.00 0.00 0.00 48 993.5
20260510045403 60 332 11.0 21.0 0.00 0.00 0.00 47 993.2
20260510044503 61 337 11.0 22.0 0.00 0.00 0.00 45 992.6
20260510043603 63 340 10.0 20.0 0.00 0.00 0.00 42 992.4
20260510042704 65 46 6.0 14.0 0.00 0.00 0.00 37 992.5
20260510042017 66 101 5.0 11.0 0.00 0.00 0.00 33 991.9
20260510041116 66 107 7.0 12.0 0.00 0.00 0.00 31 991.6
20260510040004 66 91 7.0 12.0 0.00 0.00 0.00 30 991.4
20260510035403 66 96 5.0 8.0 0.00 0.00 0.00 30 991.2
20260510034717 67 86 5.0 10.0 0.00 0.00 0.00 29 991.0
20260510033603 66 70 5.0 10.0 0.00 0.00 0.00 30 990.8
20260510032917 65 68 3.0 10.0 0.00 0.00 0.00 30 990.5
20260510031804 65 90 4.0 8.0 0.00 0.00 0.00 31 990.3
20260510030903 65 79 3.0 8.0 0.00 0.00 0.00 32 989.9
20260510030004 66 85 3.0 4.0 0.00 0.00 0.00 33 989.6
20260510025407 66 91 2.0 6.0 0.00 0.00 0.00 31 989.3
20260510024503 66 111 3.0 6.0 0.00 0.00 0.00 31 989.2
20260510023603 67 117 2.0 4.0 0.00 0.00 0.00 32 989.0
20260510022703 68 126 3.0 4.0 0.00 0.00 0.00 32 988.8
20260510021803 69 124 3.0 6.0 0.00 0.00 0.00 28 988.7
20260510020903 69 133 4.0 9.0 0.00 0.00 0.00 27 988.6
20260510020003 69 119 2.0 5.0 0.00 0.00 0.00 27 988.4
20260510015404 69 118 1.0 5.0 0.00 0.00 0.00 26 988.4
20260510014503 68 172 0.0 2.0 0.00 0.00 0.00 28 988.3
20260510013603 68 81 0.0 1.0 0.00 0.00 0.00 29 988.3
20260510012703 69 0 0.0 0.0 0.00 0.00 0.00 27 988.1
20260510011803 70 167 0.0 4.0 0.00 0.00 0.00 28 988.0
20260510010903 70 224 3.0 8.0 0.00 0.00 0.00 26 987.7
20260510010004 70 223 4.0 11.0 0.00 0.00 0.00 26 987.6
20260510005403 71 222 5.0 15.0 0.00 0.00 0.00 25 987.5
20260510004503 71 236 6.0 14.0 0.00 0.00 0.00 26 987.4
20260510003606 71 232 7.0 16.0 0.00 0.00 0.00 25 987.4
20260510002703 72 240 5.0 11.0 0.00 0.00 0.00 25 987.4
20260510001803 72 223 5.0 11.0 0.00 0.00 0.00 23 987.7
20260510001117 72 220 5.0 14.0 0.00 0.00 0.00 23 987.2
20260510000003 73 233 8.0 18.0 0.00 0.00 0.00 22 986.9
20260509235403 74 238 7.0 18.0 0.00 0.00 0.00 21 986.8
20260509234503 75 203 2.0 12.0 0.00 0.00 0.00 18 986.5
20260509233604 76 84 1.0 7.0 0.00 0.00 0.00 16 985.9
20260509232703 76 101 1.0 8.0 0.00 0.00 0.00 16 985.3
20260509231804 76 95 2.0 14.0 0.00 0.00 0.00 15 985.2
20260509231119 76 105 3.0 14.0 0.00 0.00 0.00 14 985.6
20260509230004 77 185 2.0 8.0 0.00 0.00 0.00 14 985.7
20260509225403 77 168 2.0 8.0 0.00 0.00 0.00 14 985.6
20260509224503 77 95 1.0 12.0 0.00 0.00 0.00 14 985.4
20260509223818 78 102 3.0 13.0 0.00 0.00 0.00 14 985.4
20260509222704 80 100 5.0 13.0 0.00 0.00 0.00 16 985.3
20260509221803 81 93 6.0 18.0 0.00 0.00 0.00 12 984.9
20260509220903 82 81 2.0 8.0 0.00 0.00 0.00 19 984.7
20260509220003 81 71 1.0 5.0 0.00 0.00 0.00 19 984.6
20260509215403 81 77 2.0 11.0 0.00 0.00 0.00 14 984.8
20260509214503 82 68 1.0 4.0 0.00 0.00 0.00 14 984.8
20260509213603 81 74 2.0 8.0 0.00 0.00 0.00 16 984.9
20260509212917 81 76 5.0 11.0 0.00 0.00 0.00 18 985.0
20260509211803 83 70 5.0 14.0 0.00 0.00 0.00 14 985.2
20260509210903 84 66 4.0 14.0 0.00 0.00 0.00 14 985.3
20260509210003 83 70 6.0 13.0 0.00 0.00 0.00 12 985.4
20260509205403 82 77 8.0 14.0 0.00 0.00 0.00 13 985.4
20260509204503 83 66 3.0 12.0 0.00 0.00 0.00 16 985.4
20260509203603 81 51 2.0 10.0 0.00 0.00 0.00 14 985.6
20260509202703 82 73 4.0 12.0 0.00 0.00 0.00 13 985.7
20260509201804 83 76 3.0 10.0 0.00 0.00 0.00 13 985.8
20260509200903 82 55 3.0 10.0 0.00 0.00 0.00 13 986.1
20260509200004 81 60 1.0 10.0 0.00 0.00 0.00 15 986.3
20260509195403 80 59 1.0 7.0 0.00 0.00 0.00 14 986.3
20260509194503 79 79 6.0 18.0 0.00 0.00 0.00 16 986.6
20260509193603 80 77 6.0 17.0 0.00 0.00 0.00 17 986.8
20260509192917 80 77 9.0 18.0 0.00 0.00 0.00 19 986.8
20260509192018 80 81 8.0 18.0 0.00 0.00 0.00 19 987.0
20260509190903 79 87 7.0 18.0 0.00 0.00 0.00 21 987.3
20260509190004 79 87 6.0 15.0 0.00 0.00 0.00 21 987.4
20260509185403 79 91 3.0 15.0 0.00 0.00 0.00 15 987.5
20260509184717 81 112 1.0 6.0 0.00 0.00 0.00 16 987.4
20260509183603 80 125 2.0 4.0 0.00 0.00 0.00 16 987.7
20260509182703 79 18 2.0 5.0 0.00 0.00 0.00 16 987.8
20260509181803 78 71 3.0 12.0 0.00 0.00 0.00 24 988.1
20260509181117 79 43 2.0 7.0 0.00 0.00 0.00 19 988.3
20260509180004 77 346 1.0 4.0 0.00 0.00 0.00 17 988.4
20260509175404 76 80 2.0 10.0 0.00 0.00 0.00 20 988.6
20260509174503 76 76 4.0 10.0 0.00 0.00 0.00 19 988.8
20260509173603 76 74 3.0 9.0 0.00 0.00 0.00 23 988.9
20260509172703 76 244 6.0 13.0 0.00 0.00 0.00 24 989.1
20260509171803 75 268 5.0 11.0 0.00 0.00 0.00 18 989.3
20260509170903 75 256 6.0 18.0 0.00 0.00 0.00 20 989.4
20260509170003 74 238 7.0 18.0 0.00 0.00 0.00 21 989.4
20260509165403 74 206 6.0 13.0 0.00 0.00 0.00 20 989.4
20260509164718 73 215 4.0 10.0 0.00 0.00 0.00 22 989.5
20260509163818 72 210 3.0 6.0 0.00 0.00 0.00 24 989.7
20260509162703 72 195 4.0 10.0 0.00 0.00 0.00 26 989.8
20260509162017 72 176 3.0 6.0 0.00 0.00 0.00 28 990.0
20260509160903 71 119 2.0 4.0 0.00 0.00 0.00 27 990.2
20260509160217 71 132 3.0 5.0 0.00 0.00 0.00 28 990.3
20260509155403 70 235 1.0 4.0 0.00 0.00 0.00 30 990.4
20260509154503 69 264 1.0 3.0 0.00 0.00 0.00 30 990.5
20260509153604 68 287 3.0 8.0 0.00 0.00 0.00 32 990.5
20260509152703 67 309 5.0 9.0 0.00 0.00 0.00 33 990.7
20260509151803 66 294 3.0 7.0 0.00 0.00 0.00 37 990.7
20260509150903 64 305 3.0 9.0 0.00 0.00 0.00 42 990.8
20260509150003 61 300 3.0 9.0 0.00 0.00 0.00 48 990.9
20260509145403 59 312 3.0 7.0 0.00 0.00 0.00 51 990.9
20260509144503 57 311 3.0 7.0 0.00 0.00 0.00 51 990.9
20260509143603 58 311 4.0 9.0 0.00 0.00 0.00 50 990.9
20260509142919 58 299 4.0 9.0 0.00 0.00 0.00 49 990.9
20260509141803 58 286 4.0 11.0 0.00 0.00 0.00 48 990.8
20260509140903 58 298 4.0 11.0 0.00 0.00 0.00 48 990.7
20260509140004 58 297 5.0 11.0 0.00 0.00 0.00 47 990.7
20260509135403 59 297 6.0 12.0 0.00 0.00 0.00 47 990.8
20260509134503 59 291 7.0 13.0 0.00 0.00 0.00 46 990.6
20260509133604 58 286 8.0 17.0 0.00 0.00 0.00 48 990.5
20260509132703 57 300 10.0 18.0 0.00 0.00 0.00 50 990.6
20260509131803 56 310 10.0 17.0 0.00 0.00 0.00 51 990.5
20260509130903 56 306 9.0 16.0 0.00 0.00 0.00 52 990.4
20260509130218 55 297 5.0 14.0 0.00 0.00 0.00 54 990.3
20260509125403 54 309 7.0 16.0 0.00 0.00 0.00 55 990.2
20260509124503 54 313 11.0 17.0 0.00 0.00 0.00 53 990.4
20260509123603 54 306 13.0 19.0 0.00 0.00 0.00 54 990.5
20260509122703 54 300 12.0 23.0 0.00 0.00 0.00 54 990.6
20260509121803 53 304 11.0 21.0 0.00 0.00 0.00 56 990.2
20260509120904 52 306 7.0 19.0 0.00 0.00 0.00 57 990.2
20260509120003 52 304 8.0 15.0 0.00 0.00 0.00 58 990.2
20260509115403 52 308 5.0 12.0 0.00 0.00 0.00 59 990.2
20260509114503 52 317 8.0 13.0 0.00 0.00 0.00 59 990.0
20260509113818 52 305 7.0 13.0 0.00 0.00 0.00 60 989.9
20260509112703 52 299 7.0 16.0 0.00 0.00 0.00 59 989.9
20260509111804 52 293 5.0 14.0 0.00 0.00 0.00 59 990.0
20260509110903 52 306 5.0 11.0 0.00 0.00 0.00 59 990.2
20260509110003 52 305 9.0 16.0 0.00 0.00 0.00 59 990.2
20260509105403 52 310 11.0 16.0 0.00 0.00 0.00 60 990.1
20260509104503 51 315 9.0 15.0 0.00 0.00 0.00 62 990.2
20260509103603 51 309 8.0 14.0 0.00 0.00 0.00 64 990.2
20260509102703 49 305 6.0 12.0 0.00 0.00 0.00 68 990.2
20260509101803 48 309 3.0 9.0 0.00 0.00 0.00 71 990.2
20260509101118 46 302 3.0 10.0 0.00 0.00 0.00 74 990.2
20260509100005 46 279 0.0 4.0 0.00 0.00 0.00 75 990.2
20260509095403 47 279 1.0 3.0 0.00 0.00 0.00 75 990.2
20260509094503 47 303 1.0 6.0 0.00 0.00 0.00 75 990.2
20260509093603 46 321 4.0 7.0 0.00 0.00 0.00 75 990.1
20260509092703 46 327 3.0 5.0 0.00 0.00 0.00 79 990.1
20260509091803 45 315 3.0 5.0 0.00 0.00 0.00 80 990.3
20260509090903 45 308 0.0 2.0 0.00 0.00 0.00 80 990.3
20260509090219 45 0 0.0 0.0 0.00 0.00 0.00 79 990.2
20260509085403 46 308 0.0 1.0 0.00 0.00 0.00 79 990.4
20260509084718 46 308 0.0 1.0 0.00 0.00 0.00 78 990.3
20260509083817 47 308 0.0 2.0 0.00 0.00 0.00 77 990.4
20260509082703 47 308 0.0 4.0 0.00 0.00 0.00 76 990.5
20260509082018 47 308 0.0 1.0 0.00 0.00 0.00 75 990.5
20260509080903 48 307 1.0 4.0 0.00 0.00 0.00 74 990.5